This is the latest recevied weather packets stored in our database for station/object K3SV. If no packets are shown the sender has not sent any weather packets the latest 10 day(s).
| Time | Temp. | Humidity | Pressure | Rain* | Wind** | Luminosity | Snow |
|---|---|---|---|---|---|---|---|
| 1777504030 | 28.33° C | 66% | 1012 hPa | 0 mm | - | 37 W/m² | - |
| 1777503727 | 28.33° C | 65% | 1012.1 hPa | 0 mm | - | 39 W/m² | - |
| 1777503424 | 28.33° C | 65% | 1011.6 hPa | 0 mm | - | 43 W/m² | - |
| 1777503119 | 28.89° C | 64% | 1011.8 hPa | 0 mm | - | 45 W/m² | - |
| 1777502817 | 28.89° C | 63% | 1011.7 hPa | 0 mm | - | 48 W/m² | - |
| 1777502514 | 28.89° C | 63% | 1011.5 hPa | 0 mm | - | 94 W/m² | - |
| 1777502211 | 30° C | 60% | 1011.6 hPa | 0 mm | - | 129 W/m² | - |
| 1777501908 | 29.44° C | 60% | 1011.8 hPa | 0 mm | - | 138 W/m² | - |
| 1777501605 | 30° C | 60% | 1011.6 hPa | 0 mm | - | 155 W/m² | - |
| 1777501302 | 30° C | 59% | 1011.4 hPa | 0 mm | - | 161 W/m² | - |
| 1777501000 | 30° C | 58% | 1011.5 hPa | 0 mm | - | 183 W/m² | - |
| 1777500698 | 30° C | 58% | 1011.5 hPa | 0 mm | - | 192 W/m² | - |
| 1777500394 | 30° C | 57% | 1011.7 hPa | 0 mm | - | 213 W/m² | - |
| 1777500090 | 31.11° C | 55% | 1011.6 hPa | 0 mm | - | 228 W/m² | - |
| 1777499787 | 30.56° C | 55% | 1011.7 hPa | 0 mm | - | 239 W/m² | - |
| 1777499483 | 31.11° C | 54% | 1011.7 hPa | 0 mm | - | 244 W/m² | - |
| 1777499182 | 30.56° C | 54% | 1012 hPa | 0 mm | - | 270 W/m² | - |
| 1777498878 | 31.11° C | 54% | 1012 hPa | 0 mm | - | 288 W/m² | - |
| 1777498575 | 31.67° C | 53% | 1012 hPa | 0 mm | - | 302 W/m² | - |
| 1777498271 | 31.11° C | 54% | 1011.8 hPa | 0 mm | - | 314 W/m² | - |
| 1777497969 | 31.11° C | 54% | 1011.8 hPa | 0 mm | - | 336 W/m² | - |
| 1777497664 | 31.67° C | 53% | 1011.7 hPa | 0 mm | - | 342 W/m² | - |
| 1777497361 | 30.56° C | 51% | 1011.9 hPa | 0 mm | - | 370 W/m² | - |
| 1777497057 | 31.67° C | 50% | 1012.1 hPa | 0 mm | - | 98 W/m² | - |
| 1777496754 | 31.67° C | 50% | 1011.9 hPa | 0 mm | - | 387 W/m² | - |
* Rain latest hour (hover to see other rain measurements)
** Current wind speed in m/s (hover to see current wind gust speed)